GW4858 Weather Reports


Display with metric or nautical units.
time (UTC)temp
F
wind
direction
speed
MPH
gust
MPH
rain 1hr
in
rain 24hr
in
rain mn
in
humidity
%
barometer
mb
20260505052504 56 323 0.0 0.0 0.00 0.00 0.00 75 1013.8
20260505052001 56 331 0.0 0.0 0.00 0.00 0.00 74 1013.8
20260505051458 57 331 0.0 0.0 0.00 0.00 0.00 73 1014.1
20260505050956 57 326 0.0 0.0 0.00 0.00 0.00 73 1014.0
20260505050454 57 318 0.0 0.0 0.00 0.00 0.00 72 1014.2
20260505041422 60 303 0.0 1.0 0.00 0.00 0.00 68 1014.1
20260505040919 59 191 2.0 3.0 0.00 0.00 0.00 68 1014.3
20260505040416 60 302 0.0 0.0 0.00 0.00 0.00 68 1014.1
20260505035913 60 312 0.0 1.0 0.00 0.00 0.00 68 1014.2
20260505035409 59 316 0.0 1.0 0.00 0.00 0.00 68 1014.1
20260505034907 59 286 0.0 2.0 0.00 0.00 0.00 68 1014.2
20260505034403 59 313 0.0 1.0 0.00 0.00 0.00 68 1014.2
20260505033900 59 320 0.0 0.0 0.00 0.00 0.00 68 1014.3
20260505033356 59 318 0.0 0.0 0.00 0.00 0.00 68 1014.4
20260505032855 59 303 0.0 1.0 0.00 0.00 0.00 68 1014.3
20260505032351 59 312 0.0 1.0 0.00 0.00 0.00 68 1014.5
20260505031848 59 271 2.0 2.0 0.00 0.00 0.00 69 1014.3
20260505031345 58 312 1.0 2.0 0.00 0.00 0.00 69 1014.3
20260505030842 58 313 0.0 0.0 0.00 0.00 0.00 69 1014.3
20260505030338 58 315 0.0 0.0 0.00 0.00 0.00 69 1014.5
20260505025833 58 316 0.0 0.0 0.00 0.00 0.00 68 1014.7
20260505025331 58 251 1.0 2.0 0.00 0.00 0.00 68 1014.6
20260505024829 58 328 0.0 0.0 0.00 0.00 0.00 68 1014.6
20260505024327 59 317 0.0 0.0 0.00 0.00 0.00 67 1014.7
20260505023824 59 316 0.0 0.0 0.00 0.00 0.00 67 1014.5
20260505023321 59 317 0.0 0.0 0.00 0.00 0.00 67 1014.6
20260505022818 59 330 0.0 0.0 0.00 0.00 0.00 67 1014.7
20260505022315 60 286 0.0 0.0 0.00 0.00 0.00 66 1014.9
20260505021812 60 323 0.0 0.0 0.00 0.00 0.00 66 1014.8
20260505021309 60 297 1.0 1.0 0.00 0.00 0.00 66 1014.8
20260505020804 60 304 1.0 1.0 0.00 0.00 0.00 66 1014.8
20260505020300 60 312 1.0 2.0 0.00 0.00 0.00 66 1014.8
20260505015757 60 316 0.0 1.0 0.00 0.00 0.00 66 1014.7
20260505015254 60 321 0.0 2.0 0.00 0.00 0.00 66 1014.7
20260505014751 60 250 1.0 2.0 0.00 0.00 0.00 66 1014.7
20260505014249 60 325 1.0 2.0 0.00 0.00 0.00 66 1014.6
20260505013745 60 253 0.0 0.0 0.00 0.00 0.00 66 1014.8
20260505013243 60 286 1.0 2.0 0.00 0.00 0.00 66 1014.7
20260505012741 60 249 2.0 2.0 0.00 0.00 0.00 66 1014.6
20260505012238 60 314 1.0 2.0 0.00 0.00 0.00 66 1014.5
20260505011733 61 195 1.0 2.0 0.00 0.00 0.00 66 1014.5
20260505011231 60 293 1.0 3.0 0.00 0.00 0.00 66 1014.5
20260505010726 61 328 1.0 2.0 0.00 0.00 0.00 66 1014.4
20260505010223 61 207 1.0 2.0 0.00 0.00 0.00 67 1014.3
20260505005719 60 264 2.0 3.0 0.00 0.00 0.00 67 1014.2
20260505005216 60 260 1.0 2.0 0.00 0.00 0.00 67 1014.3
20260505004713 61 306 0.0 3.0 0.00 0.00 0.00 67 1014.0
20260505004210 61 294 1.0 2.0 0.00 0.00 0.00 66 1014.1
20260505003707 61 298 1.0 3.0 0.00 0.00 0.00 66 1014.1
20260505003205 61 320 0.0 2.0 0.00 0.00 0.00 65 1014.2
20260505002701 62 277 2.0 2.0 0.00 0.00 0.00 64 1014.1
20260505002159 62 182 2.0 4.0 0.00 0.00 0.00 63 1013.9
20260505001655 62 219 2.0 4.0 0.00 0.00 0.00 62 1013.8
20260505001153 63 290 2.0 2.0 0.00 0.00 0.00 60 1013.6
20260505000650 63 300 0.0 3.0 0.00 0.00 0.00 60 1013.7
20260505000148 63 277 1.0 3.0 0.00 0.00 0.00 60 1013.5
20260504235644 63 2 1.0 1.0 0.00 0.00 0.00 60 1013.4
20260504235140 63 355 0.0 4.0 0.00 0.00 0.00 60 1013.3
20260504234638 64 274 2.0 4.0 0.00 0.00 0.00 60 1013.5
20260504234135 64 248 4.0 6.0 0.00 0.00 0.00 59 1013.5
20260504233631 64 246 1.0 2.0 0.00 0.00 0.00 58 1013.3
20260504233127 65 276 2.0 2.0 0.00 0.00 0.00 57 1013.2
20260504232625 65 283 1.0 2.0 0.00 0.00 0.00 56 1013.3
20260504232121 65 291 0.0 2.0 0.00 0.00 0.00 56 1013.1
20260504231618 66 203 1.0 3.0 0.00 0.00 0.00 56 1013.3
20260504231114 66 223 2.0 2.0 0.00 0.00 0.00 56 1013.2
20260504230610 66 337 3.0 3.0 0.00 0.00 0.00 57 1013.2
20260504230109 66 292 0.0 2.0 0.00 0.00 0.00 57 1013.0
20260504225607 66 198 2.0 2.0 0.00 0.00 0.00 58 1013.1
20260504225103 66 199 2.0 3.0 0.00 0.00 0.00 58 1013.0
20260504224600 66 290 2.0 6.0 0.00 0.00 0.00 57 1013.1
20260504224057 66 202 0.0 4.0 0.00 0.00 0.00 56 1012.8
20260504223554 66 355 1.0 4.0 0.00 0.00 0.00 56 1012.9
20260504223050 67 248 2.0 3.0 0.00 0.00 0.00 55 1012.8
20260504222547 67 153 4.0 7.0 0.00 0.00 0.00 55 1012.9
20260504222044 67 252 2.0 3.0 0.00 0.00 0.00 54 1013.0
20260504221542 67 202 2.0 7.0 0.00 0.00 0.00 54 1012.9
20260504221038 67 313 1.0 8.0 0.00 0.00 0.00 54 1013.0
20260504220535 67 47 2.0 6.0 0.00 0.00 0.00 54 1013.0
20260504220032 67 246 4.0 9.0 0.00 0.00 0.00 54 1013.2
20260504215528 67 158 3.0 8.0 0.00 0.00 0.00 54 1013.1
20260504215026 67 83 2.0 4.0 0.00 0.00 0.00 53 1013.0
20260504214521 67 262 2.0 7.0 0.00 0.00 0.00 53 1012.9
20260504214018 67 351 2.0 6.0 0.00 0.00 0.00 53 1013.2
20260504213514 68 164 3.0 4.0 0.00 0.00 0.00 53 1013.2
20260504213012 67 115 2.0 4.0 0.00 0.00 0.00 53 1013.1
20260504212507 67 295 2.0 4.0 0.00 0.00 0.00 53 1013.1
20260504212005 68 155 2.0 7.0 0.00 0.00 0.00 52 1013.2
20260504211501 68 180 3.0 6.0 0.00 0.00 0.00 51 1013.1
20260504210959 68 210 4.0 8.0 0.00 0.00 0.00 50 1013.1
20260504210456 68 176 2.0 6.0 0.00 0.00 0.00 50 1013.0
20260504205952 68 141 5.0 6.0 0.00 0.00 0.00 50 1013.1
20260504205450 68 240 4.0 7.0 0.00 0.00 0.00 50 1013.1
20260504204948 68 166 4.0 6.0 0.00 0.00 0.00 49 1013.1
20260504204446 68 283 3.0 6.0 0.00 0.00 0.00 49 1012.9
20260504203945 68 198 4.0 7.0 0.00 0.00 0.00 49 1013.0
20260504203442 69 184 4.0 7.0 0.00 0.00 0.00 50 1012.9
20260504202938 69 331 2.0 7.0 0.00 0.00 0.00 49 1012.9
20260504202435 68 301 2.0 6.0 0.00 0.00 0.00 51 1012.9
20260504201932 68 109 4.0 4.0 0.00 0.00 0.00 51 1013.0
20260504201429 69 254 4.0 6.0 0.00 0.00 0.00 50 1012.8
20260504200926 69 174 2.0 6.0 0.00 0.00 0.00 52 1012.9
20260504200423 68 216 4.0 7.0 0.00 0.00 0.00 52 1013.0
20260504195920 68 195 2.0 4.0 0.00 0.00 0.00 52 1013.0
20260504195416 69 190 3.0 4.0 0.00 0.00 0.00 51 1013.2
20260504194912 69 162 3.0 4.0 0.00 0.00 0.00 50 1013.4
20260504194408 69 172 2.0 4.0 0.00 0.00 0.00 50 1013.2
20260504193904 70 241 1.0 4.0 0.00 0.00 0.00 49 1013.3
20260504193402 71 244 2.0 4.0 0.00 0.00 0.00 47 1013.4
20260504192900 71 246 1.0 6.0 0.00 0.00 0.00 46 1013.2
20260504192357 73 144 5.0 6.0 0.00 0.00 0.00 45 1013.3
20260504191856 74 226 2.0 3.0 0.00 0.00 0.00 34 1013.6
20260504191354 74 273 5.0 7.0 0.00 0.00 0.00 32 1013.6
20260504190849 74 303 4.0 8.0 0.00 0.00 0.00 33 1013.7
20260504190345 74 335 2.0 2.0 0.00 0.00 0.00 33 1013.6
20260504185842 74 264 3.0 8.0 0.00 0.00 0.00 32 1013.9
20260504185339 74 353 2.0 4.0 0.00 0.00 0.00 33 1013.6
20260504184834 74 188 3.0 6.0 0.00 0.00 0.00 34 1013.7
20260504184331 73 88 2.0 4.0 0.00 0.00 0.00 33 1013.8
20260504183826 73 196 5.0 9.0 0.00 0.00 0.00 33 1013.9
20260504183324 74 203 9.0 11.0 0.00 0.00 0.00 33 1014.0
20260504182822 74 247 1.0 7.0 0.00 0.00 0.00 35 1014.0
20260504182319 74 112 4.0 4.0 0.00 0.00 0.00 33 1014.2
20260504181816 73 333 2.0 7.0 0.00 0.00 0.00 34 1014.2
20260504181314 73 252 1.0 6.0 0.00 0.00 0.00 34 1014.2
20260504180812 73 265 2.0 6.0 0.00 0.00 0.00 34 1014.3
20260504180310 73 316 1.0 3.0 0.00 0.00 0.00 35 1014.5
20260504175808 73 338 2.0 10.0 0.00 0.00 0.00 34 1014.2
20260504175305 73 162 2.0 4.0 0.00 0.00 0.00 35 1014.4
20260504174803 73 176 2.0 6.0 0.00 0.00 0.00 34 1014.5
20260504174300 72 283 3.0 6.0 0.00 0.00 0.00 35 1014.5
20260504173756 72 237 1.0 4.0 0.00 0.00 0.00 35 1014.6
20260504173253 71 322 1.0 8.0 0.00 0.00 0.00 35 1014.8
20260504172750 73 111 3.0 10.0 0.00 0.00 0.00 34 1014.8
20260504172247 72 279 1.0 2.0 0.00 0.00 0.00 36 1014.7
20260504171743 72 347 2.0 3.0 0.00 0.00 0.00 35 1014.9
20260504171240 71 292 1.0 7.0 0.00 0.00 0.00 35 1015.1
20260504170737 70 195 4.0 11.0 0.00 0.00 0.00 34 1014.9
20260504170234 71 234 7.0 10.0 0.00 0.00 0.00 34 1015.0
20260504160153 70 278 2.0 8.0 0.00 0.00 0.00 37 1015.8
20260504151120 68 322 2.0 3.0 0.00 0.00 0.00 38 1016.2
20260504150618 68 245 3.0 6.0 0.00 0.00 0.00 38 1016.3
20260504150115 67 241 3.0 7.0 0.00 0.00 0.00 39 1016.3
20260504141043 65 248 1.0 15.0 0.00 0.00 0.00 40 1016.7
20260504140540 66 311 2.0 6.0 0.00 0.00 0.00 41 1016.5
20260504130504 62 307 1.0 2.0 0.00 0.00 0.00 53 1017.1
20260504110351 51 326 1.0 8.0 0.00 0.00 0.00 67 1017.9
20260504100309 49 268 1.0 6.0 0.00 0.00 0.00 64 1017.8
20260504081702 48 268 0.0 7.0 0.00 0.00 0.00 60 1017.5
20260504081158 47 312 0.0 1.0 0.00 0.00 0.00 61 1017.4
20260504080655 47 228 0.0 1.0 0.00 0.00 0.00 61 1017.3
20260504080152 47 325 0.0 0.0 0.00 0.00 0.00 60 1017.3
20260504070119 47 290 0.0 1.0 0.00 0.00 0.00 59 1017.1